FW4699 Weather Reports


Display with metric or nautical units.
time (UTC)temp
F
wind
direction
speed
MPH
gust
MPH
rain 1hr
in
rain 24hr
in
rain mn
in
humidity
%
barometer
mb
20260506114810 59 206 5.0 7.0 0.00 0.00 1.27 77 1009.8
20260506114610 59 189 3.0 11.0 0.00 0.00 1.27 77 1009.8
20260506114211 58 175 4.0 8.0 0.00 0.00 1.27 80 1009.8
20260506114017 58 137 4.0 6.0 0.00 0.00 1.27 79 1009.8
20260506113810 58 163 3.0 9.0 0.00 0.00 1.27 78 1010.2
20260506113610 58 186 4.0 8.0 0.00 0.00 1.27 79 1009.8
20260506113410 58 157 4.0 9.0 0.00 0.00 1.27 80 1009.8
20260506113210 58 178 3.0 9.0 0.00 0.00 1.27 81 1010.2
20260506113025 58 194 4.0 8.0 0.00 0.00 1.27 82 1010.2
20260506112809 58 189 5.0 6.0 0.00 0.00 1.27 79 1009.8
20260506112610 57 192 5.0 8.0 0.00 0.00 1.27 80 1010.2
20260506112410 57 181 4.0 8.0 0.00 0.00 1.27 82 1010.2
20260506112016 57 180 4.0 6.0 0.00 0.00 1.27 81 1009.8
20260506111809 57 172 4.0 8.0 0.00 0.00 1.27 82 1010.2
20260506111610 57 180 4.0 5.0 0.00 0.00 1.27 80 1009.8
20260506111410 57 194 5.0 7.0 0.00 0.00 1.27 81 1010.2
20260506111210 57 134 6.0 9.0 0.00 0.00 1.27 81 1010.2
20260506110810 57 181 4.0 8.0 0.00 0.00 1.27 83 1010.2
20260506110610 57 174 4.0 8.0 0.00 0.00 1.27 81 1010.2
20260506110410 57 188 5.0 9.0 0.00 0.00 1.27 82 1010.2
20260506110210 57 191 4.0 9.0 0.00 0.00 1.27 83 1010.2
20260506105811 57 190 4.0 9.0 0.00 0.00 1.27 84 1009.8
20260506105610 57 177 3.0 9.0 0.00 0.00 1.27 83 1009.8
20260506105211 57 162 4.0 6.0 0.00 0.00 1.27 84 1009.8
20260506105016 56 180 4.0 9.0 0.00 0.00 1.27 85 1010.2
20260506104810 56 190 6.0 7.0 0.00 0.00 1.27 85 1009.8
20260506104410 56 168 3.0 7.0 0.00 0.00 1.27 86 1009.8
20260506104210 56 194 6.0 8.0 0.00 0.00 1.27 86 1010.2
20260506103810 55 212 8.0 9.0 0.00 0.00 1.27 87 1009.8
20260506103610 55 169 5.0 7.0 0.00 0.00 1.27 87 1009.8
20260506103410 55 193 6.0 8.0 0.00 0.00 1.27 88 1010.2
20260506103211 55 162 3.0 6.0 0.00 0.00 1.27 88 1009.8
20260506103026 55 183 5.0 6.0 0.00 0.00 1.27 87 1009.8
20260506102610 55 157 3.0 9.0 0.00 0.00 1.27 87 1010.2
20260506102411 55 164 4.0 9.0 0.00 0.00 1.27 87 1009.8
20260506102017 54 172 6.0 7.0 0.00 0.00 1.27 90 1009.8
20260506101810 54 204 6.0 8.0 0.00 0.00 1.27 89 1009.8
20260506101610 54 207 6.0 8.0 0.00 0.00 1.27 88 1009.8
20260506101410 54 179 5.0 11.0 0.00 0.00 1.27 89 1009.8
20260506101210 54 121 2.0 7.0 0.00 0.00 1.27 89 1009.8
20260506101017 54 174 3.0 7.0 0.00 0.00 1.27 89 1009.8
20260506100810 54 207 6.0 8.0 0.00 0.00 1.27 91 1009.5
20260506100610 54 175 6.0 7.0 0.00 0.00 1.27 90 1009.8
20260506100410 54 205 5.0 8.0 0.00 0.00 1.27 90 1009.8
20260506100210 54 176 4.0 8.0 0.00 0.00 1.27 91 1009.8
20260506100038 54 182 5.0 8.0 0.00 0.00 1.27 91 1009.8
20260506095411 54 176 5.0 8.0 0.00 0.00 1.27 91 1009.8
20260506095210 54 186 6.0 11.0 0.00 0.00 1.27 92 1009.8
20260506095016 54 215 4.0 12.0 0.00 0.00 1.27 91 1009.8
20260506094410 53 181 5.0 9.0 0.00 0.00 1.27 92 1009.8
20260506094211 53 181 6.0 7.0 0.00 0.00 1.27 92 1009.8
20260506093810 53 156 4.0 8.0 0.00 0.00 1.27 93 1009.8
20260506093610 53 195 5.0 6.0 0.00 0.00 1.27 93 1009.8
20260506093409 53 159 4.0 6.0 0.00 0.00 1.27 93 1009.8
20260506093210 53 164 3.0 6.0 0.00 0.00 1.27 93 1009.8
20260506093024 53 155 4.0 8.0 0.00 0.00 1.27 93 1009.5
20260506092810 53 138 3.0 8.0 0.00 0.00 1.27 94 1009.8
20260506092609 52 185 3.0 8.0 0.00 0.00 1.27 93 1009.5
20260506092410 52 195 7.0 8.0 0.00 0.00 1.27 93 1009.5
20260506092210 52 192 4.0 8.0 0.00 0.00 1.27 93 1009.8
20260506092016 52 178 4.0 13.0 0.00 0.00 1.27 95 1009.8
20260506091810 52 191 6.0 11.0 0.00 0.00 1.27 94 1009.8
20260506091410 52 213 4.0 8.0 0.00 0.00 1.27 95 1009.8
20260506091210 52 185 4.0 8.0 0.00 0.00 1.27 95 1009.8
20260506091016 51 188 6.0 8.0 0.00 0.00 1.27 95 1009.5
20260506090810 51 177 6.0 8.0 0.00 0.00 1.27 95 1009.8
20260506090610 51 191 4.0 9.0 0.00 0.00 1.27 96 1009.8
20260506090410 51 204 5.0 9.0 0.00 0.00 1.27 97 1009.5
20260506090211 51 164 4.0 9.0 0.00 0.00 1.27 97 1009.8
20260506085811 50 183 7.0 9.0 0.00 0.00 1.27 96 1009.5
20260506085409 50 190 4.0 13.0 0.00 0.00 1.27 97 1009.5
20260506085210 50 165 4.0 6.0 0.00 0.00 1.27 97 1009.8
20260506085018 50 150 3.0 7.0 0.00 0.00 1.27 98 1009.8
20260506084610 50 181 5.0 7.0 0.00 0.00 1.27 97 1009.5
20260506084410 50 171 4.0 6.0 0.00 0.00 1.27 97 1009.8
20260506084210 50 178 5.0 6.0 0.00 0.00 1.27 97 1009.5
20260506084017 50 176 6.0 9.0 0.00 0.00 1.27 97 1009.8
20260506083610 50 173 5.0 8.0 0.00 0.00 1.27 97 1009.8
20260506083410 49 164 6.0 12.0 0.00 0.00 1.27 97 1009.5
20260506083210 49 131 7.0 9.0 0.00 0.00 1.27 97 1009.5
20260506083024 49 167 6.0 8.0 0.00 0.00 1.27 97 1009.5
20260506082810 49 154 3.0 9.0 0.00 0.00 1.27 97 1009.5
20260506082411 49 174 6.0 8.0 0.00 0.00 1.27 97 1009.5
20260506082018 49 193 5.0 7.0 0.00 0.00 1.27 97 1009.5
20260506081810 49 178 7.0 7.0 0.00 0.00 1.27 97 1009.5
20260506081611 49 185 5.0 8.0 0.00 0.00 1.27 97 1009.1
20260506081016 49 119 5.0 8.0 0.00 0.00 1.27 98 1009.1
20260506080810 49 169 5.0 8.0 0.00 0.00 1.27 98 1009.1
20260506080610 49 121 6.0 10.0 0.00 0.00 1.27 98 1009.5
20260506080410 49 157 4.0 9.0 0.00 0.00 1.27 98 1009.5
20260506080211 49 191 7.0 8.0 0.00 0.00 1.27 98 1009.5
20260506073210 49 195 5.0 9.0 0.00 0.00 1.27 99 1009.1
20260506073024 49 174 5.0 8.0 0.00 0.00 1.27 99 1009.1
20260506072810 49 173 5.0 7.0 0.00 0.00 1.27 99 1009.1
20260506072410 49 184 4.0 6.0 0.00 0.00 1.27 99 1008.8
20260506072210 49 167 5.0 7.0 0.00 0.00 1.27 99 1009.1
20260506072019 49 177 4.0 8.0 0.00 0.00 1.27 99 1009.1
20260506071810 49 190 5.0 9.0 0.00 0.00 1.27 99 1008.8
20260506071612 49 189 6.0 7.0 0.00 0.00 1.27 99 1009.1
20260506071410 49 180 6.0 8.0 0.00 0.00 1.27 99 1008.8
20260506071210 49 189 5.0 8.0 0.00 0.00 1.27 99 1008.5
20260506070810 49 175 4.0 11.0 0.00 0.00 1.27 99 1008.8
20260506070610 49 163 5.0 7.0 0.00 0.00 1.27 99 1008.8
20260506070411 49 192 7.0 8.0 0.00 0.00 1.27 99 1008.5
20260506070211 49 148 4.0 6.0 0.00 0.00 1.27 99 1008.8
20260506062411 49 185 4.0 9.0 0.00 0.00 1.27 99 1008.5
20260506062210 49 183 6.0 8.0 0.00 0.00 1.27 99 1008.5
20260506062016 49 178 4.0 7.0 0.00 0.00 1.27 99 1008.5
20260506061810 49 204 5.0 7.0 0.00 0.00 1.27 99 1008.1
20260506061610 49 197 6.0 7.0 0.00 0.00 1.27 99 1008.5
20260506061410 49 187 6.0 8.0 0.02 0.00 1.27 99 1008.5
20260506061210 49 180 8.0 14.0 0.02 0.00 1.27 99 1008.1
20260506061017 49 222 5.0 8.0 0.02 0.00 1.27 99 1008.5
20260506060809 49 184 6.0 8.0 0.02 0.00 1.27 99 1008.5
20260506060610 49 187 5.0 8.0 0.02 0.00 1.27 99 1008.1
20260506060410 49 179 5.0 8.0 0.02 0.00 1.27 99 1008.1
20260506060210 49 179 4.0 8.0 0.02 0.00 1.27 99 1008.1
20260506051410 49 163 6.0 9.0 0.00 0.00 1.27 99 1007.5
20260506051210 49 175 5.0 9.0 0.00 0.00 1.27 99 1007.8
20260506050810 49 179 6.0 8.0 0.00 0.00 1.27 99 1007.8
20260506050610 49 179 5.0 7.0 0.00 0.00 1.27 99 1007.8
20260506050410 49 182 5.0 7.0 0.02 0.00 1.27 99 1007.8
20260506050210 49 133 2.0 7.0 0.02 0.00 1.27 99 1007.5
20260506045016 50 172 5.0 9.0 0.00 0.00 1.27 99 1007.8
20260506044810 50 183 3.0 6.0 0.00 0.00 1.27 99 1007.5
20260506044611 50 174 4.0 6.0 0.02 0.00 1.27 99 1007.8
20260506044410 50 178 5.0 7.0 0.02 0.00 1.27 99 1007.5
20260506044017 50 186 6.0 9.0 0.02 0.00 1.27 99 1007.5
20260506043810 50 191 5.0 7.0 0.02 0.00 1.27 99 1007.5
20260506043611 50 184 5.0 7.0 0.00 0.00 1.01 99 1007.8
20260506043410 50 155 4.0 7.0 0.00 0.00 1.01 99 1007.5
20260506043211 50 181 5.0 6.0 0.00 0.00 1.01 99 1007.5
20260506043024 50 175 4.0 7.0 0.00 0.00 1.01 99 1007.8
20260506042610 50 171 6.0 8.0 0.00 0.00 1.01 99 1007.5
20260506042210 50 169 4.0 7.0 0.00 0.00 1.01 99 1007.8
20260506041810 50 187 4.0 7.0 0.00 0.00 1.01 99 1007.8
20260506041610 50 175 6.0 6.0 0.02 0.00 1.01 99 1007.8
20260506041410 50 171 6.0 8.0 0.02 0.00 1.01 99 1007.5
20260506041210 50 178 6.0 7.0 0.02 0.00 1.01 99 1007.5
20260506041015 50 185 5.0 7.0 0.02 0.00 1.01 99 1007.5
20260506040810 50 175 5.0 8.0 0.02 0.00 1.01 99 1007.5
20260506040610 50 175 6.0 8.0 0.00 0.00 1.01 99 1007.8
20260506040410 50 170 5.0 7.0 0.00 0.00 1.01 99 1007.8
20260506040210 50 179 6.0 7.0 0.00 0.00 1.01 99 1007.5
20260506035810 50 183 5.0 7.0 0.00 0.00 1.01 99 1007.5
20260506035610 50 180 6.0 7.0 0.00 0.00 1.01 99 1007.5
20260506035210 50 177 5.0 7.0 0.00 0.00 1.01 99 1007.5
20260506035016 50 167 6.0 8.0 0.00 0.00 1.01 99 1007.8
20260506034810 50 165 8.0 8.0 0.00 0.00 1.01 99 1007.5
20260506034611 50 180 5.0 6.0 0.00 0.00 1.01 99 1007.5
20260506034210 50 174 5.0 8.0 0.00 0.00 1.01 99 1007.5
20260506034015 50 184 6.0 8.0 0.00 0.00 1.01 99 1007.5
20260506033810 50 182 6.0 6.0 0.00 0.00 1.01 99 1007.5
20260506033610 50 183 4.0 7.0 0.00 0.00 1.01 99 1007.5
20260506033410 50 175 6.0 8.0 0.00 0.00 1.01 99 1007.5
20260506033024 50 181 6.0 7.0 0.02 0.00 1.01 99 1007.5
20260506032810 50 174 6.0 8.0 0.02 0.00 1.01 99 1007.5
20260506032610 50 185 5.0 8.0 0.02 0.00 1.01 99 1007.5
20260506032411 50 178 6.0 7.0 0.02 0.00 1.01 99 1007.5
20260506032015 50 180 6.0 9.0 0.00 0.00 1.01 99 1007.5
20260506031810 50 183 5.0 7.0 0.00 0.00 1.01 99 1007.5
20260506031610 50 174 4.0 8.0 0.00 0.00 1.01 99 1007.5
20260506031210 50 164 4.0 8.0 0.00 0.00 1.01 99 1007.5
20260506030811 50 193 6.0 8.0 0.00 0.00 1.01 99 1007.5
20260506030410 50 179 5.0 7.0 0.00 0.00 1.01 99 1007.5
20260506030210 51 172 6.0 6.0 0.02 0.00 1.01 99 1007.8
20260506030033 51 180 5.0 8.0 0.02 0.00 1.01 99 1007.5
20260506025810 51 184 6.0 6.0 0.02 0.00 1.01 99 1007.8
20260506025611 51 182 6.0 8.0 0.02 0.00 1.01 99 1007.5
20260506025410 51 173 5.0 7.0 0.02 0.00 1.01 99 1007.5
20260506025210 51 166 6.0 7.0 0.00 0.00 1.01 99 1007.5
20260506025017 51 166 5.0 7.0 0.02 0.00 1.01 99 1007.5
20260506024809 51 173 6.0 8.0 0.02 0.00 1.01 99 1007.5
20260506024610 51 178 6.0 7.0 0.02 0.00 1.01 99 1007.5
20260506024410 51 178 6.0 7.0 0.02 0.00 1.01 99 1007.5
20260506024210 51 179 6.0 7.0 0.02 0.00 1.01 99 1007.5
20260506024016 51 174 6.0 8.0 0.02 0.00 1.01 99 1007.8
20260506023610 51 180 6.0 7.0 0.02 0.00 1.01 99 1007.5
20260506023410 51 178 6.0 8.0 0.02 0.00 1.01 99 1007.5
20260506023025 51 177 4.0 8.0 0.02 0.00 1.01 99 1007.5
20260506022810 51 177 5.0 7.0 0.02 0.00 1.01 99 1007.5
20260506022610 51 177 5.0 8.0 0.02 0.00 1.01 99 1007.5
20260506022410 51 172 5.0 8.0 0.00 0.00 1.01 99 1007.8
20260506022210 51 189 6.0 8.0 0.02 0.00 1.01 99 1007.5
20260506022017 51 179 6.0 8.0 0.02 0.00 1.01 99 1007.8
20260506021811 51 188 5.0 8.0 0.02 0.00 1.01 99 1007.5
20260506021610 51 180 5.0 7.0 0.02 0.00 1.01 99 1007.5
20260506021410 51 172 6.0 6.0 0.02 0.00 1.01 99 1007.5
20260506021210 51 175 3.0 9.0 0.02 0.00 1.01 99 1007.5
20260506021017 51 191 6.0 7.0 0.02 0.00 1.01 99 1007.5
20260506020810 51 177 4.0 6.0 0.02 0.00 1.01 99 1007.5
20260506020610 51 177 4.0 8.0 0.02 0.00 1.01 99 1007.5
20260506020410 51 174 6.0 7.0 0.02 0.00 1.01 99 1007.5
20260506020210 51 163 5.0 6.0 0.00 0.00 1.01 99 1007.5
20260506020033 51 179 4.0 7.0 0.00 0.00 1.01 99 1007.5
20260506015810 51 173 5.0 8.0 0.00 0.00 1.01 99 1007.5
20260506015610 51 182 5.0 9.0 0.00 0.00 1.01 99 1007.5
20260506015410 51 177 6.0 8.0 0.00 0.00 1.01 99 1007.5
20260506015210 51 183 4.0 7.0 0.00 0.00 1.01 99 1007.5
20260506015015 51 184 6.0 8.0 0.00 0.00 1.01 99 1007.5
20260506014810 51 178 6.0 7.0 0.00 0.00 1.01 99 1007.5
20260506014610 51 180 5.0 7.0 0.00 0.00 1.01 99 1007.5
20260506014410 51 172 6.0 7.0 0.00 0.00 1.01 99 1007.5
20260506014210 51 185 5.0 6.0 0.00 0.00 1.01 99 1007.5
20260506013812 51 179 6.0 7.0 0.00 0.00 1.01 99 1007.5
20260506013610 51 181 5.0 8.0 0.00 0.00 1.01 99 1007.5
20260506013411 51 181 4.0 7.0 0.00 0.00 1.01 99 1007.5
20260506013210 51 184 6.0 7.0 0.00 0.00 1.01 99 1007.5
20260506013023 51 180 6.0 7.0 0.02 0.00 1.01 99 1007.5
20260506012810 51 180 5.0 7.0 0.02 0.00 1.01 99 1007.5
20260506012610 51 186 6.0 8.0 0.02 0.00 1.01 99 1007.5
20260506012409 51 161 5.0 8.0 0.02 0.00 1.01 99 1007.5
20260506012210 51 177 5.0 7.0 0.02 0.00 1.01 99 1007.1
20260506012016 52 178 6.0 8.0 0.00 0.00 0.76 99 1007.5
20260506011810 52 186 6.0 9.0 0.00 0.00 0.76 99 1007.5
20260506011610 52 173 4.0 8.0 0.00 0.00 0.76 99 1007.5
20260506011210 52 179 6.0 7.0 0.02 0.00 0.76 99 1007.5
20260506010810 52 176 5.0 7.0 0.02 0.00 0.76 99 1007.5
20260506010610 52 170 6.0 8.0 0.02 0.00 0.76 99 1007.5
20260506010410 52 182 6.0 7.0 0.00 0.00 0.76 99 1007.5
20260506010213 52 175 6.0 7.0 0.02 0.00 0.76 99 1007.5
20260506010034 52 180 6.0 7.0 0.02 0.00 0.76 99 1007.5
20260506005610 52 181 6.0 7.0 0.02 0.00 0.76 99 1007.5
20260506005410 52 178 5.0 8.0 0.02 0.00 0.76 99 1007.5
20260506005018 52 177 6.0 7.0 0.02 0.00 0.76 99 1007.5
20260506004811 52 180 5.0 8.0 0.02 0.00 0.76 99 1007.5
20260506004610 52 177 5.0 7.0 0.02 0.00 0.76 99 1007.5
20260506004410 52 177 6.0 8.0 0.02 0.00 0.76 99 1007.5
20260506004210 52 176 6.0 8.0 0.02 0.00 0.76 99 1007.5
20260506004016 52 174 4.0 8.0 0.02 0.00 0.76 99 1007.5
20260506003810 52 182 5.0 8.0 0.05 0.00 0.76 99 1007.5
20260506003610 52 175 6.0 8.0 0.02 0.00 0.76 99 1007.1
20260506003412 52 182 5.0 7.0 0.05 0.00 0.76 99 1007.5
20260506003211 52 181 4.0 9.0 0.02 0.00 0.76 99 1007.5
20260506002811 52 176 5.0 8.0 0.02 0.00 0.76 99 1007.5
20260506002610 52 172 5.0 8.0 0.02 0.00 0.76 99 1007.5
20260506002210 52 177 5.0 7.0 0.05 0.00 0.76 99 1007.5
20260506002018 52 173 5.0 8.0 0.05 0.00 0.76 99 1007.5
20260506001810 52 180 6.0 8.0 0.05 0.00 0.76 99 1007.5
20260506001611 52 172 6.0 8.0 0.05 0.00 0.76 99 1007.5
20260506001210 52 184 6.0 9.0 0.05 0.00 0.50 99 1007.5
20260506001017 52 161 4.0 9.0 0.05 0.00 0.50 99 1007.5
20260506000811 52 183 6.0 7.0 0.05 0.00 0.50 99 1007.5
20260506000611 52 160 5.0 9.0 0.05 0.00 0.50 99 1007.8
20260506000212 52 184 6.0 8.0 0.05 0.00 0.50 99 1007.5
20260506000037 52 176 7.0 11.0 0.05 0.00 0.50 99 1007.5
20260505235810 52 171 7.0 8.0 0.05 0.00 0.50 99 1007.5
20260505235611 52 174 7.0 7.0 0.07 0.00 0.50 99 1007.5
20260505235210 52 175 5.0 8.0 0.07 0.00 0.50 99 1007.5
20260505235016 52 163 6.0 8.0 0.07 0.00 0.50 99 1007.8
20260505234812 52 188 6.0 8.0 0.07 0.00 0.50 99 1007.5
20260505234610 52 175 6.0 9.0 0.05 0.00 0.25 99 1007.5
20260505234410 52 172 6.0 8.0 0.02 0.00 0.25 99 1007.5
20260505234210 52 169 5.0 8.0 0.05 0.00 0.25 99 1007.5
20260505233810 52 184 6.0 8.0 0.02 0.00 0.25 99 1007.5
20260505233611 52 176 3.0 8.0 0.02 0.00 0.25 99 1007.5
20260505233410 52 144 5.0 7.0 0.02 0.00 0.25 99 1007.5
20260505233210 52 186 6.0 7.0 0.02 0.00 0.25 99 1007.5
20260505233023 52 168 4.0 6.0 0.05 0.00 0.25 99 1007.5
20260505232811 52 180 5.0 8.0 0.05 0.00 0.25 99 1007.5
20260505232610 52 175 7.0 8.0 0.05 0.00 0.25 99 1007.5
20260505232411 52 178 6.0 9.0 0.05 0.00 0.25 99 1007.8
20260505232210 52 174 4.0 9.0 0.02 0.00 0.25 99 1007.5
20260505232016 52 160 7.0 9.0 0.02 0.00 0.25 99 1007.5
20260505231810 52 176 5.0 8.0 0.02 0.00 0.25 99 1007.5
20260505231610 52 178 6.0 9.0 0.02 0.00 0.25 99 1007.5
20260505231410 52 180 6.0 11.0 0.02 0.00 0.25 99 1007.5
20260505231210 52 179 5.0 11.0 0.02 0.00 0.25 98 1007.5
20260505231018 52 130 4.0 9.0 0.02 0.00 0.25 98 1007.5
20260505230810 52 179 8.0 9.0 0.00 0.00 0.00 98 1007.8
20260505230610 52 150 6.0 8.0 0.00 0.00 0.00 98 1007.8
20260505230410 53 194 6.0 8.0 0.02 0.00 0.00 98 1007.5
20260505230210 53 87 4.0 10.0 0.02 0.00 0.00 98 1007.8
20260505230032 53 175 7.0 9.0 0.02 0.00 0.00 98 1007.8
20260505225811 53 146 6.0 8.0 0.02 0.00 0.00 98 1007.8
20260505225610 53 183 4.0 8.0 0.02 0.00 0.00 98 1007.5
20260505225410 53 173 6.0 9.0 0.00 0.00 0.00 98 1007.5
20260505225210 53 176 8.0 9.0 0.00 0.00 0.00 99 1007.5
20260505225017 53 162 6.0 9.0 0.00 0.00 0.00 98 1007.5
20260505224611 53 180 5.0 8.0 0.00 0.00 0.00 98 1007.5
20260505224410 53 177 6.0 8.0 0.00 0.00 0.00 98 1007.8
20260505224210 53 186 6.0 7.0 0.00 0.00 0.00 98 1007.5
20260505224016 53 180 4.0 8.0 0.00 0.00 0.00 98 1007.8
20260505223410 53 174 5.0 6.0 0.00 0.00 0.00 98 1007.5
20260505223212 53 179 6.0 7.0 0.02 0.00 0.00 98 1007.8
20260505223023 53 178 4.0 7.0 0.02 0.00 0.00 98 1007.5
20260505222811 53 179 4.0 7.0 0.02 0.00 0.00 98 1007.5
20260505222610 53 175 4.0 7.0 0.02 0.00 0.00 98 1007.5
20260505222410 53 167 4.0 7.0 0.02 0.00 0.00 98 1007.5
20260505222210 53 164 5.0 8.0 0.00 0.00 0.00 99 1007.5
20260505222017 53 177 4.0 9.0 0.00 0.00 0.00 99 1007.8
20260505221639 53 186 4.0 7.0 0.00 0.00 0.00 99 1007.5
20260505221427 53 172 6.0 7.0 0.02 0.00 0.00 99 1007.5
20260505221109 53 168 6.0 6.0 0.02 0.00 0.00 99 1007.8
20260505220423 53 168 6.0 6.0 0.02 0.00 0.00 99 1007.8
20260505214826 54 185 4.0 7.0 0.05 0.00 2.28 98 1007.5
20260505214048 54 180 5.0 8.0 0.05 0.00 2.28 98 1007.8
20260505212448 54 180 5.0 6.0 0.10 0.00 2.03 98 1007.5
20260505212026 54 173 6.0 6.0 0.10 0.00 2.03 98 1007.5
20260505211048 54 180 5.0 6.0 0.10 0.00 1.77 98 1007.5
20260505210840 54 182 6.0 6.0 0.12 0.00 1.77 98 1007.5
20260505205824 54 181 6.0 6.0 0.07 0.00 1.52 98 1007.8
20260505205230 54 172 5.0 7.0 0.05 0.00 1.52 98 1007.8
20260505203811 54 175 5.0 6.0 0.02 0.00 1.27 98 1007.8
20260505203629 54 180 4.0 6.0 0.02 0.00 1.27 98 1007.5
20260505203423 54 168 4.0 6.0 0.02 0.00 1.27 98 1007.8
20260505202410 54 179 4.0 7.0 0.00 0.00 1.27 98 1007.5
20260505202216 54 185 6.0 8.0 0.00 0.00 1.27 98 1007.5
20260505201836 54 184 5.0 6.0 0.02 0.00 1.27 98 1007.5
20260505201610 54 174 3.0 6.0 0.02 0.00 1.27 98 1007.5
20260505201411 54 168 4.0 7.0 0.02 0.00 1.27 98 1007.5
20260505200855 54 183 4.0 5.0 0.00 0.00 1.27 98 1007.5
20260505200217 54 180 4.0 7.0 0.00 0.00 1.27 98 1007.5
20260505200049 54 217 7.0 7.0 0.00 0.00 1.27 98 1007.5
20260505195238 54 171 6.0 6.0 0.00 0.00 1.27 98 1007.1
20260505194811 54 177 4.0 7.0 0.00 0.00 1.27 98 1007.5
20260505194610 54 186 5.0 6.0 0.00 0.00 1.27 98 1007.1
20260505194210 54 190 6.0 7.0 0.00 0.00 1.27 98 1007.1
20260505194017 54 181 5.0 5.0 0.00 0.00 1.27 98 1007.1
20260505193810 54 178 5.0 7.0 0.00 0.00 1.27 98 1007.1
20260505193610 54 167 4.0 6.0 0.00 0.00 1.27 98 1007.1
20260505193410 54 157 6.0 8.0 0.00 0.00 1.27 98 1007.1
20260505193210 54 191 3.0 5.0 0.00 0.00 1.27 98 1007.1
20260505193023 54 162 3.0 5.0 0.00 0.00 1.27 98 1007.1
20260505192811 54 184 5.0 6.0 0.00 0.00 1.27 98 1007.1
20260505192609 54 167 4.0 8.0 0.00 0.00 1.27 98 1007.1
20260505192210 54 174 4.0 8.0 0.02 0.00 1.27 98 1006.8
20260505191810 54 183 5.0 6.0 0.02 0.00 1.27 98 1006.8
20260505191410 54 179 4.0 6.0 0.00 0.00 1.27 98 1007.1
20260505191210 54 180 6.0 7.0 0.00 0.00 1.27 98 1006.8
20260505191017 54 186 4.0 7.0 0.02 0.00 1.27 98 1006.8
20260505190811 54 183 6.0 7.0 0.02 0.00 1.27 98 1006.8
20260505190610 54 172 5.0 7.0 0.02 0.00 1.27 98 1007.1
20260505190410 54 163 7.0 8.0 0.02 0.00 1.27 98 1006.8
20260505190210 54 190 6.0 6.0 0.00 0.00 1.27 98 1006.8
20260505190035 54 192 4.0 8.0 0.00 0.00 1.27 98 1006.8
20260505185810 54 175 4.0 7.0 0.00 0.00 1.27 98 1006.8
20260505185610 54 182 6.0 7.0 0.00 0.00 1.27 98 1006.8
20260505185410 54 182 6.0 6.0 0.00 0.00 1.27 98 1006.8
20260505185016 54 191 6.0 6.0 0.00 0.00 1.27 98 1007.1
20260505184810 54 180 6.0 6.0 0.00 0.00 1.27 98 1006.8
20260505184610 54 181 5.0 6.0 0.00 0.00 1.27 98 1006.8
20260505184410 54 179 4.0 6.0 0.02 0.00 1.27 98 1006.8
20260505184211 54 172 4.0 7.0 0.02 0.00 1.27 98 1006.8
20260505184018 54 165 4.0 8.0 0.02 0.00 1.27 98 1006.8
20260505183810 54 183 5.0 6.0 0.02 0.00 1.27 98 1006.8
20260505183610 54 140 4.0 6.0 0.02 0.00 1.27 98 1006.8
20260505183410 54 182 5.0 6.0 0.00 0.00 1.27 98 1006.8
20260505183210 54 182 5.0 6.0 0.00 0.00 1.27 98 1006.8
20260505183025 54 171 5.0 6.0 0.00 0.00 1.27 98 1006.8
20260505182810 54 177 6.0 8.0 0.00 0.00 1.27 98 1006.8
20260505182610 54 214 7.0 8.0 0.00 0.00 1.27 98 1006.8
20260505182411 55 170 4.0 6.0 0.00 0.00 1.27 98 1006.4
20260505182210 55 180 4.0 8.0 0.00 0.00 1.27 98 1006.4
20260505182016 55 171 5.0 6.0 0.00 0.00 1.27 98 1006.4
20260505181810 55 159 5.0 5.0 0.00 0.00 1.27 98 1006.8
20260505181610 55 153 3.0 7.0 0.00 0.00 1.27 98 1006.8
20260505181410 55 179 4.0 6.0 0.00 0.00 1.27 98 1006.8
20260505181211 55 176 5.0 6.0 0.00 0.00 1.27 98 1006.8
20260505181016 55 180 4.0 5.0 0.00 0.00 1.27 98 1006.8
20260505180810 55 180 3.0 6.0 0.00 0.00 1.27 98 1006.8
20260505180611 55 188 6.0 6.0 0.00 0.00 1.27 98 1006.8
20260505180410 55 165 4.0 6.0 0.00 0.00 1.27 98 1006.8
20260505180210 55 142 6.0 8.0 0.00 0.00 1.27 98 1006.8
20260505180034 55 185 6.0 6.0 0.00 0.00 1.27 98 1006.8
20260505175810 55 171 4.0 6.0 0.00 0.00 1.27 98 1006.8
20260505175610 55 182 5.0 6.0 0.00 0.00 1.27 98 1006.8
20260505175210 55 181 4.0 6.0 0.00 0.00 1.27 98 1006.8
20260505175016 55 174 6.0 8.0 0.00 0.00 1.27 98 1006.8
20260505174810 55 207 6.0 7.0 0.00 0.00 1.27 98 1006.4
20260505174610 55 147 5.0 7.0 0.00 0.00 1.27 98 1006.8
20260505174410 55 180 5.0 6.0 0.00 0.00 1.27 98 1006.8
20260505174211 55 178 4.0 6.0 0.00 0.00 1.27 98 1006.8
20260505173809 55 176 4.0 6.0 0.00 0.00 1.27 97 1006.8
20260505173610 55 168 4.0 6.0 0.00 0.00 1.27 97 1006.8
20260505173410 55 184 6.0 8.0 0.00 0.00 1.27 97 1006.8
20260505173210 55 162 4.0 6.0 0.00 0.00 1.27 97 1006.8
20260505173025 55 160 3.0 6.0 0.00 0.00 1.27 97 1006.8
20260505172809 55 192 6.0 6.0 0.00 0.00 1.27 97 1006.8
20260505172610 55 186 4.0 6.0 0.00 0.00 1.27 97 1006.8
20260505172410 55 153 3.0 6.0 0.00 0.00 1.27 97 1006.8
20260505172210 55 180 6.0 6.0 0.00 0.00 1.27 97 1006.8
20260505172016 55 189 3.0 7.0 0.00 0.00 1.27 97 1006.8
20260505171810 55 180 4.0 7.0 0.00 0.00 1.27 97 1006.8
20260505171610 55 196 6.0 6.0 0.00 0.00 1.27 97 1006.8
20260505171410 55 162 3.0 8.0 0.02 0.00 1.27 97 1006.8
20260505171210 55 160 6.0 8.0 0.02 0.00 1.27 97 1006.8
20260505171017 55 168 4.0 9.0 0.02 0.00 1.27 97 1006.8
20260505170810 55 187 6.0 6.0 0.02 0.00 1.27 97 1006.8
20260505170410 55 160 5.0 7.0 0.00 0.00 1.27 97 1006.8
20260505170210 55 171 5.0 6.0 0.00 0.00 1.27 97 1007.1
20260505165810 55 212 6.0 7.0 0.00 0.00 1.27 97 1006.8
20260505165610 55 173 3.0 6.0 0.00 0.00 1.27 97 1006.8
20260505165412 55 196 6.0 6.0 0.00 0.00 1.27 97 1007.1
20260505165016 55 168 3.0 6.0 0.00 0.00 1.27 97 1006.8
20260505164810 55 136 4.0 11.0 0.00 0.00 1.27 97 1006.8
20260505164610 55 167 5.0 6.0 0.00 0.00 1.27 97 1006.8
20260505164410 55 166 4.0 7.0 0.00 0.00 1.27 97 1006.8
20260505164210 55 182 5.0 6.0 0.00 0.00 1.27 97 1006.8
20260505163410 55 184 5.0 6.0 0.00 0.00 1.27 97 1006.8
20260505163210 55 187 4.0 6.0 0.00 0.00 1.27 97 1006.8
20260505163026 55 191 4.0 9.0 0.00 0.00 1.27 97 1006.4
20260505162810 55 181 4.0 6.0 0.00 0.00 1.27 97 1006.8
20260505162609 55 183 4.0 6.0 0.00 0.00 1.27 97 1006.8
20260505162410 55 171 4.0 7.0 0.00 0.00 1.27 97 1006.8
20260505162210 55 172 5.0 6.0 0.00 0.00 1.27 97 1006.8
20260505162017 55 193 4.0 8.0 0.00 0.00 1.27 97 1006.8
20260505161810 55 161 5.0 6.0 0.00 0.00 1.27 97 1006.8
20260505161410 55 177 4.0 6.0 0.00 0.00 1.27 97 1006.8
20260505161210 55 129 6.0 7.0 0.00 0.00 1.27 97 1006.8
20260505161017 55 187 4.0 6.0 0.00 0.00 1.27 97 1006.8
20260505160610 55 176 4.0 10.0 0.02 0.00 1.27 97 1006.8
20260505160411 55 180 4.0 6.0 0.02 0.00 1.27 97 1006.8
20260505160210 55 203 5.0 6.0 0.02 0.00 1.27 97 1006.8
20260505153210 56 183 4.0 8.0 0.02 0.00 1.27 97 1006.8
20260505153026 56 157 6.0 8.0 0.02 0.00 1.27 97 1006.4
20260505152610 56 221 5.0 7.0 0.02 0.00 1.27 97 1006.8
20260505152410 56 166 6.0 7.0 0.02 0.00 1.01 97 1006.8
20260505152210 56 164 6.0 8.0 0.02 0.00 1.01 97 1006.8
20260505152016 56 169 5.0 6.0 0.02 0.00 1.01 97 1006.8
20260505151810 56 188 5.0 6.0 0.02 0.00 1.01 97 1006.8
20260505151610 56 188 6.0 6.0 0.02 0.00 1.01 97 1006.8
20260505151410 56 143 3.0 6.0 0.02 0.00 1.01 97 1006.8
20260505151210 56 167 3.0 8.0 0.02 0.00 1.01 97 1006.8
20260505151018 56 177 4.0 7.0 0.02 0.00 1.01 97 1006.8
20260505150810 56 179 3.0 6.0 0.02 0.00 1.01 97 1007.1
20260505150610 56 182 5.0 6.0 0.05 0.00 1.01 97 1006.8
20260505150410 56 167 6.0 7.0 0.05 0.00 1.01 97 1006.8
20260505150210 56 182 4.0 7.0 0.05 0.00 1.01 97 1006.8
20260505140610 57 158 4.0 7.0 0.05 0.00 0.50 96 1006.8
20260505140410 57 165 4.0 8.0 0.05 0.00 0.50 96 1006.8
20260505140210 57 187 6.0 6.0 0.02 0.00 0.50 96 1006.8
20260505124810 58 187 3.0 6.0 0.02 0.00 0.00 94 1006.8
20260505124610 58 173 3.0 6.0 0.02 0.00 0.00 94 1006.8
20260505124411 58 180 4.0 6.0 0.02 0.00 0.00 93 1006.8
20260505124210 58 187 6.0 6.0 0.02 0.00 0.00 93 1006.8
20260505123610 59 150 2.0 7.0 0.02 0.00 0.00 93 1006.8
20260505123211 59 144 5.0 6.0 0.02 0.00 0.00 93 1006.8
20260505123025 59 189 6.0 6.0 0.00 0.00 0.00 93 1006.8
20260505122810 59 180 4.0 6.0 0.02 0.00 0.00 93 1006.8
20260505122610 59 183 5.0 6.0 0.02 0.00 0.00 93 1006.8
20260505122410 59 187 3.0 8.0 0.02 0.00 0.00 93 1006.8
20260505122210 59 188 4.0 7.0 0.02 0.00 0.00 93 1006.8
20260505122018 59 170 4.0 6.0 0.02 0.00 0.00 93 1006.8
20260505121610 59 167 6.0 8.0 0.00 0.00 0.00 92 1006.8
20260505121410 59 157 3.0 8.0 0.00 0.00 0.00 92 1007.1
20260505121211 59 193 5.0 6.0 0.00 0.00 0.00 92 1007.1
20260505121017 59 165 3.0 8.0 0.00 0.00 0.00 92 1007.1
20260505120811 59 155 1.0 6.0 0.00 0.00 0.00 92 1007.1
20260505120610 59 172 5.0 6.0 0.00 0.00 0.00 92 1007.1
20260505120411 59 165 3.0 6.0 0.00 0.00 0.00 92 1006.8
20260505120210 59 140 4.0 7.0 0.00 0.00 0.00 91 1006.8
20260505120037 59 165 3.0 7.0 0.00 0.00 0.00 91 1007.1
20260505115810 59 179 6.0 6.0 0.00 0.00 0.00 92 1007.1
20260505115210 59 174 4.0 7.0 0.00 0.00 0.00 92 1006.8